THOR ABLESTAR DEB, 48814

Orbit data source: Space-Track

THOR ABLESTAR DEB, 48814 is space debris in LEO originally from a launch on Thu, 29 Jun 1961 UTC launched from the Air Force Eastern Test Range (AFETR). Debris objects in space refer to the collection of defunct objects orbiting the Earth. Examples of debris include non-operational satellites, rocket bodies, and fragments generated from explosions, collisions, or faulty payload assembly.

Loading next visibility...
Identifier
48814, 1961-015MS
Orbit
LEO
Country
Flag of USUS
Related business
Manufacturer
Unknown
Mission
Spacecraft
Bus & Motor
Unknown
Mass
Unknown
Launch date (UTC)
1961-06-29 (65 years ago)
Launch vehicle
Unknown
Launch site
Air Force Eastern Test Range (AFETR)
Object type
Payload
Rocket body
Debris
Shape & HBR
Unknown shape, 0.1 m
Radar Cross Section
Small (<0.1 m²)

Expand to show TLE details & history
Last TLE update: 10 hours ago

TLE from 10 hours ago
0 THOR ABLESTAR DEB
1 48814U 61015MS  26095.29629954  .00004286  00000-0  31032-2 0  9997
2 48814  65.9044  60.8594 0023353 208.0597 151.9220 13.97339296625380
Epoch: 2026-04-05T07:06Z
TLE epoch observation values (Epoch: 2026-04-05T07:06:40.280Z)
Latitude
-0.00006°
Longitude
120.58778°
Altitude
920.049 km
Speed
7.385 km/s
True Right ascension
04h 03m 26s
True Declination
0° 00' 00"
Sunlit
Object was in daylight at epoch
Visualization orbit readout
Latitude
Unknown
Longitude
Unknown
Altitude
Unknown
Speed
Unknown
Apparent Right ascension
Unknown
Apparent Declination
Unknown
Sunlit
N/A
Visualization observer readout
Local Sidereal Time
23:15:20
Azimuth
Unknown
Elevation
Unknown
Doppler factor
Unknown
Orbital elements
Apogee altitude
918.516 km
Perigee altitude
884.516 km
Semi-major axis
7,279.653 km
Eccentricity
0.00234
Inclination
65.9044°
RAAN
60.8594°
Arg. of periapsis
208.0597°
True anomaly
152.04763°
Mean anomaly
151.922°
Eccentric anomaly
151.98485°
Mean motion
3.49444 °/min
Orbital period
103.02 mins
BSTAR
0.0031032
Loading maneuver chart data...
Computing Atmospheric mass density...

Documentation

Showing up to 5 results
|